Location: Caseificio
(44.7500°N, 11.0500°E)
Time: 16:38:22
(UTC+00:00)

Meteor 1-11 - Pass Details

Date: 26 May 2022
Orbit: 839 x 888 km, 81.2° (Epoch: 06 July)

Event Time Altitude Azimuth Distance (km) Brightness Sun altitude
Exits shadow 02:45:20 - 188° (S) 3,411 6.9 -8.3°
Reaches altitude 10° 02:47:36 10° 188° (S) 2,544 6.3 -8.0°
Maximum altitude 02:53:25 89° 98° (E) 891 4.4 -7.2°
Drops below altitude 10° 02:59:13 10° 11° (N) 2,544 7.5 -6.4°
Sets 03:01:40 0° 11° (NNE) 3,481 8.3 -6.0°
